Time,TemperatureF,DewpointF,PressureIn,WindDirection,WindDirectionDegrees,WindSpeedMPH,WindSpeedGustMPH,Humidity,HourlyPrecipIn,Conditions,Clouds,dailyrainin,SoftwareType,DateUTC
2013-02-16 00:00:00,27.0,26.3,30.20,NW,326,0.0,0.0,97,0.00,,---,0.00,VWS V14.01,2013-02-16 08:00:00,
2013-02-16 00:03:00,27.0,26.3,30.21,NW,326,0.0,0.0,97,0.00,,---,0.00,VWS V14.01,2013-02-16 08:03:00,
2013-02-16 00:08:00,26.9,26.2,30.20,NW,326,0.0,0.0,97,0.00,,---,0.00,VWS V14.01,2013-02-16 08:08:00,
2013-02-16 00:13:00,26.9,26.2,30.20,NW,326,0.0,0.0,97,0.00,,---,0.00,VWS V14.01,2013-02-16 08:13:00,
2013-02-16 00:18:00,26.9,26.2,30.20,NW,326,0.0,0.0,97,0.00,,---,0.00,VWS V14.01,2013-02-16 08:18:00,
2013-02-16 00:23:00,26.8,26.1,30.20,NW,326,0.0,0.0,97,0.00,,---,0.00,VWS V14.01,2013-02-16 08:23:00,
2013-02-16 00:28:00,26.9,26.2,30.20,NW,326,0.0,0.0,97,0.00,,---,0.00,VWS V14.01,2013-02-16 08:28:00,
2013-02-16 00:33:00,26.9,26.2,30.20,NW,326,0.0,0.0,97,0.00,,---,0.00,VWS V14.01,2013-02-16 08:33:00,
2013-02-16 00:38:00,26.9,26.2,30.20,NW,326,0.0,0.0,97,0.00,,---,0.00,VWS V14.01,2013-02-16 08:38:00,
2013-02-16 00:43:00,26.8,26.1,30.19,NW,326,0.0,1.0,97,0.00,,---,0.00,VWS V14.01,2013-02-16 08:43:00,
2013-02-16 00:48:00,26.8,26.1,30.19,NW,326,0.0,1.0,97,0.00,,---,0.00,VWS V14.01,2013-02-16 08:48:00,
2013-02-16 00:53:00,26.8,26.1,30.19,NW,326,0.0,1.0,97,0.00,,---,0.00,VWS V14.01,2013-02-16 08:53:00,
2013-02-16 00:58:00,26.9,26.2,30.19,NW,326,0.0,1.0,97,0.00,,---,0.00,VWS V14.01,2013-02-16 08:58:00,
2013-02-16 01:00:00,27.0,26.3,30.19,NW,326,0.0,1.0,97,0.00,,---,0.00,VWS V14.01,2013-02-16 09:00:00,
2013-02-16 01:03:00,27.0,26.3,30.19,NW,326,0.0,0.0,97,0.00,,---,0.00,VWS V14.01,2013-02-16 09:03:00,
2013-02-16 01:08:00,26.7,26.0,30.18,NW,326,0.0,0.0,97,0.00,,---,0.00,VWS V14.01,2013-02-16 09:08:00,
2013-02-16 01:13:00,27.1,26.4,30.18,NW,326,0.0,0.0,97,0.00,,---,0.00,VWS V14.01,2013-02-16 09:13:00,
2013-02-16 01:18:00,27.5,26.8,30.18,NW,326,0.0,0.0,97,0.00,,---,0.00,VWS V14.01,2013-02-16 09:18:00,
2013-02-16 01:22:00,27.6,26.9,30.18,NW,326,0.0,0.0,97,0.00,,---,0.00,VWS V14.01,2013-02-16 09:22:00,
2013-02-16 01:27:00,27.6,26.9,30.18,NW,326,0.0,0.0,97,0.00,,---,0.00,VWS V14.01,2013-02-16 09:27:00,
2013-02-16 01:32:00,27.5,26.8,30.18,NW,326,0.0,0.0,97,0.00,,---,0.00,VWS V14.01,2013-02-16 09:32:00,
2013-02-16 01:37:00,27.6,26.9,30.18,NW,326,0.0,0.0,97,0.00,,---,0.00,VWS V14.01,2013-02-16 09:37:00,
2013-02-16 01:42:00,27.5,26.8,30.18,NW,326,0.0,0.0,97,0.00,,---,0.00,VWS V14.01,2013-02-16 09:42:00,
2013-02-16 01:48:00,27.5,26.8,30.18,NW,326,0.0,0.0,97,0.00,,---,0.00,VWS V14.01,2013-02-16 09:48:00,
2013-02-16 01:53:00,27.6,26.9,30.17,NW,326,0.0,0.0,97,0.00,,---,0.00,VWS V14.01,2013-02-16 09:53:00,
2013-02-16 01:57:00,27.5,26.8,30.17,NW,326,0.0,0.0,97,0.00,,---,0.00,VWS V14.01,2013-02-16 09:57:00,
2013-02-16 02:00:00,27.4,26.7,30.17,NW,326,0.0,0.0,97,0.00,,---,0.00,VWS V14.01,2013-02-16 10:00:00,
2013-02-16 02:02:00,27.7,27.0,30.17,NW,326,0.0,0.0,97,0.00,,---,0.00,VWS V14.01,2013-02-16 10:02:00,
2013-02-16 02:07:00,28.0,27.3,30.17,NW,326,0.0,0.0,97,0.00,,---,0.00,VWS V14.01,2013-02-16 10:07:00,
2013-02-16 02:12:00,28.3,27.6,30.16,NW,326,0.0,2.0,97,0.00,,---,0.00,VWS V14.01,2013-02-16 10:12:00,
2013-02-16 02:17:00,28.7,28.2,30.16,NW,326,0.0,2.0,98,0.00,,---,0.00,VWS V14.01,2013-02-16 10:17:00,
2013-02-16 02:22:00,29.0,28.3,30.16,NW,326,0.0,2.0,97,0.00,,---,0.00,VWS V14.01,2013-02-16 10:22:00,
2013-02-16 02:27:00,29.2,28.5,30.15,NW,326,0.0,2.0,97,0.00,,---,0.00,VWS V14.01,2013-02-16 10:27:00,
2013-02-16 02:32:00,29.4,28.9,30.15,NW,326,0.0,2.0,98,0.00,,---,0.00,VWS V14.01,2013-02-16 10:32:00,
2013-02-16 02:37:00,29.1,28.4,30.15,NW,326,0.0,2.0,97,0.00,,---,0.00,VWS V14.01,2013-02-16 10:37:00,
2013-02-16 02:42:00,29.0,28.3,30.15,NW,326,0.0,2.0,97,0.00,,---,0.00,VWS V14.01,2013-02-16 10:42:00,
2013-02-16 02:48:00,28.7,28.0,30.15,NW,326,0.0,2.0,97,0.00,,---,0.00,VWS V14.01,2013-02-16 10:48:00,
2013-02-16 02:53:00,28.5,27.8,30.15,NW,326,0.0,2.0,97,0.00,,---,0.00,VWS V14.01,2013-02-16 10:53:00,
2013-02-16 02:57:00,28.0,27.3,30.15,NW,326,0.0,2.0,97,0.00,,---,0.00,VWS V14.01,2013-02-16 10:57:00,
2013-02-16 03:00:00,27.8,27.1,30.15,NW,326,0.0,2.0,97,0.00,,---,0.00,VWS V14.01,2013-02-16 11:00:00,
2013-02-16 03:02:00,27.9,27.2,30.15,NW,326,0.0,0.0,97,0.00,,---,0.00,VWS V14.01,2013-02-16 11:02:00,
2013-02-16 03:07:00,27.9,27.2,30.14,NW,326,0.0,0.0,97,0.00,,---,0.00,VWS V14.01,2013-02-16 11:07:00,
2013-02-16 03:12:00,27.5,26.8,30.14,NW,326,0.0,0.0,97,0.00,,---,0.00,VWS V14.01,2013-02-16 11:12:00,
2013-02-16 03:17:00,27.4,26.7,30.14,NW,326,0.0,0.0,97,0.00,,---,0.00,VWS V14.01,2013-02-16 11:17:00,
2013-02-16 03:22:00,27.2,26.5,30.13,NW,326,0.0,0.0,97,0.00,,---,0.00,VWS V14.01,2013-02-16 11:22:00,
2013-02-16 03:27:00,27.3,26.6,30.13,NW,326,0.0,0.0,97,0.00,,---,0.00,VWS V14.01,2013-02-16 11:27:00,
2013-02-16 03:32:00,27.1,26.4,30.13,NW,326,0.0,0.0,97,0.00,,---,0.00,VWS V14.01,2013-02-16 11:32:00,
2013-02-16 03:37:00,26.9,26.2,30.12,NW,326,0.0,1.0,97,0.00,,---,0.00,VWS V14.01,2013-02-16 11:37:00,
2013-02-16 03:42:00,26.8,26.1,30.12,NW,326,0.0,1.0,97,0.00,,---,0.00,VWS V14.01,2013-02-16 11:42:00,
2013-02-16 03:47:00,26.7,26.0,30.12,NW,326,0.0,1.0,97,0.00,,---,0.00,VWS V14.01,2013-02-16 11:47:00,
2013-02-16 03:52:00,26.9,26.2,30.12,NW,326,0.0,1.0,97,0.00,,---,0.00,VWS V14.01,2013-02-16 11:52:00,
2013-02-16 03:57:00,26.7,26.0,30.12,NW,326,0.0,1.0,97,0.00,,---,0.00,VWS V14.01,2013-02-16 11:57:00,
2013-02-16 04:00:00,26.6,25.9,30.12,NW,326,0.0,1.0,97,0.00,,---,0.00,VWS V14.01,2013-02-16 12:00:00,
2013-02-16 04:02:00,26.5,25.8,30.12,NW,326,0.0,0.0,97,0.00,,---,0.00,VWS V14.01,2013-02-16 12:02:00,
2013-02-16 04:07:00,26.3,25.6,30.12,NW,326,0.0,0.0,97,0.00,,---,0.00,VWS V14.01,2013-02-16 12:07:00,
2013-02-16 04:12:00,26.5,25.8,30.12,NW,326,0.0,0.0,97,0.00,,---,0.00,VWS V14.01,2013-02-16 12:12:00,
2013-02-16 04:17:00,26.2,25.5,30.11,NW,326,0.0,0.0,97,0.00,,---,0.00,VWS V14.01,2013-02-16 12:17:00,
2013-02-16 04:22:00,26.2,25.5,30.11,NW,326,0.0,0.0,97,0.00,,---,0.00,VWS V14.01,2013-02-16 12:22:00,
2013-02-16 04:27:00,25.9,25.2,30.11,NW,326,0.0,0.0,97,0.00,,---,0.00,VWS V14.01,2013-02-16 12:27:00,
2013-02-16 04:32:00,25.8,25.1,30.11,NW,326,0.0,0.0,97,0.00,,---,0.00,VWS V14.01,2013-02-16 12:32:00,
2013-02-16 04:37:00,25.8,25.1,30.11,NW,326,0.0,1.0,97,0.00,,---,0.00,VWS V14.01,2013-02-16 12:37:00,
2013-02-16 04:42:00,25.6,24.9,30.11,NW,326,0.0,1.0,97,0.00,,---,0.00,VWS V14.01,2013-02-16 12:42:00,
2013-02-16 04:47:00,25.8,25.1,30.11,NW,326,0.0,1.0,97,0.00,,---,0.00,VWS V14.01,2013-02-16 12:47:00,
2013-02-16 04:52:00,25.6,24.9,30.11,NW,326,0.0,1.0,97,0.00,,---,0.00,VWS V14.01,2013-02-16 12:52:00,
2013-02-16 04:57:00,25.7,25.0,30.11,NW,326,0.0,1.0,97,0.00,,---,0.00,VWS V14.01,2013-02-16 12:57:00,
2013-02-16 05:00:00,25.8,25.1,30.11,NW,326,0.0,1.0,97,0.00,,---,0.00,VWS V14.01,2013-02-16 13:00:00,
2013-02-16 05:02:00,25.8,25.1,30.10,NW,326,0.0,0.0,97,0.00,,---,0.00,VWS V14.01,2013-02-16 13:02:00,
2013-02-16 05:07:00,25.6,24.9,30.10,NW,326,0.0,0.0,97,0.00,,---,0.00,VWS V14.01,2013-02-16 13:07:00,
2013-02-16 05:12:00,25.4,24.7,30.10,NW,326,0.0,0.0,97,0.00,,---,0.00,VWS V14.01,2013-02-16 13:12:00,
2013-02-16 05:17:00,25.4,24.7,30.10,NW,326,0.0,0.0,97,0.00,,---,0.00,VWS V14.01,2013-02-16 13:17:00,
2013-02-16 05:22:00,25.4,24.7,30.10,NW,326,0.0,0.0,97,0.00,,---,0.00,VWS V14.01,2013-02-16 13:22:00,
2013-02-16 05:27:00,25.3,24.6,30.10,NW,326,0.0,0.0,97,0.00,,---,0.00,VWS V14.01,2013-02-16 13:27:00,
2013-02-16 05:32:00,25.2,24.5,30.10,NW,326,0.0,0.0,97,0.00,,---,0.00,VWS V14.01,2013-02-16 13:32:00,
2013-02-16 05:37:00,25.2,24.5,30.10,NW,326,0.0,0.0,97,0.00,,---,0.00,VWS V14.01,2013-02-16 13:37:00,
2013-02-16 05:42:00,25.1,24.4,30.10,NW,326,0.0,0.0,97,0.00,,---,0.00,VWS V14.01,2013-02-16 13:42:00,
2013-02-16 05:47:00,25.2,24.5,30.09,NW,326,0.0,0.0,97,0.00,,---,0.00,VWS V14.01,2013-02-16 13:47:00,
2013-02-16 05:52:00,25.2,24.5,30.09,NW,326,0.0,0.0,97,0.00,,---,0.00,VWS V14.01,2013-02-16 13:52:00,
2013-02-16 05:57:00,25.2,24.5,30.09,NW,326,0.0,0.0,97,0.00,,---,0.00,VWS V14.01,2013-02-16 13:57:00,
2013-02-16 06:00:00,25.1,24.4,30.09,NW,326,0.0,0.0,97,0.00,,---,0.00,VWS V14.01,2013-02-16 14:00:00,
2013-02-16 06:02:00,25.1,24.4,30.09,NW,326,0.0,0.0,97,0.00,,---,0.00,VWS V14.01,2013-02-16 14:02:00,
2013-02-16 06:07:00,24.9,24.2,30.08,NW,326,0.0,0.0,97,0.00,,---,0.00,VWS V14.01,2013-02-16 14:07:00,
2013-02-16 06:12:00,24.7,24.0,30.08,NW,326,0.0,0.0,97,0.00,,---,0.00,VWS V14.01,2013-02-16 14:12:00,
2013-02-16 06:17:00,24.7,24.0,30.08,NW,326,0.0,0.0,97,0.00,,---,0.00,VWS V14.01,2013-02-16 14:17:00,
2013-02-16 06:22:00,24.6,23.9,30.08,NW,326,0.0,0.0,97,0.00,,---,0.00,VWS V14.01,2013-02-16 14:22:00,
2013-02-16 06:27:00,24.6,23.9,30.08,NW,326,0.0,0.0,97,0.00,,---,0.00,VWS V14.01,2013-02-16 14:27:00,
2013-02-16 06:32:00,24.7,24.0,30.08,NW,326,0.0,0.0,97,0.00,,---,0.00,VWS V14.01,2013-02-16 14:32:00,
2013-02-16 06:37:00,24.6,23.9,30.07,NW,326,0.0,0.0,97,0.00,,---,0.00,VWS V14.01,2013-02-16 14:37:00,
2013-02-16 06:42:00,24.5,23.8,30.07,NW,326,0.0,0.0,97,0.00,,---,0.00,VWS V14.01,2013-02-16 14:42:00,
2013-02-16 06:47:00,24.4,23.7,30.07,NW,326,0.0,0.0,97,0.00,,---,0.00,VWS V14.01,2013-02-16 14:47:00,
2013-02-16 06:52:00,24.4,23.7,30.07,NW,326,0.0,0.0,97,0.00,,---,0.00,VWS V14.01,2013-02-16 14:52:00,
2013-02-16 06:57:00,24.4,23.7,30.07,NW,326,0.0,0.0,97,0.00,,---,0.00,VWS V14.01,2013-02-16 14:57:00,
2013-02-16 07:00:00,24.3,23.6,30.07,NW,326,0.0,0.0,97,0.00,,---,0.00,VWS V14.01,2013-02-16 15:00:00,
2013-02-16 07:02:00,24.3,23.6,30.07,NW,326,0.0,0.0,97,0.00,,---,0.00,VWS V14.01,2013-02-16 15:02:00,
2013-02-16 07:07:00,24.4,23.7,30.07,NW,326,0.0,0.0,97,0.00,,---,0.00,VWS V14.01,2013-02-16 15:07:00,
2013-02-16 07:12:00,24.5,23.8,30.07,NW,326,0.0,0.0,97,0.00,,---,0.00,VWS V14.01,2013-02-16 15:12:00,
2013-02-16 07:17:00,24.4,23.7,30.07,NW,326,0.0,0.0,97,0.00,,---,0.00,VWS V14.01,2013-02-16 15:17:00,
2013-02-16 07:22:00,24.4,23.7,30.07,NW,326,0.0,0.0,97,0.00,,---,0.00,VWS V14.01,2013-02-16 15:22:00,
2013-02-16 07:27:00,24.4,23.7,30.07,NW,326,0.0,0.0,97,0.00,,---,0.00,VWS V14.01,2013-02-16 15:27:00,
2013-02-16 07:32:00,24.5,23.8,30.07,NW,326,0.0,0.0,97,0.00,,---,0.00,VWS V14.01,2013-02-16 15:32:00,
2013-02-16 07:37:00,24.7,24.0,30.07,NW,326,0.0,0.0,97,0.00,,---,0.00,VWS V14.01,2013-02-16 15:37:00,
2013-02-16 07:42:00,24.9,24.2,30.07,NW,326,0.0,0.0,97,0.00,,---,0.00,VWS V14.01,2013-02-16 15:42:00,
2013-02-16 07:47:00,25.1,24.4,30.07,NW,326,0.0,0.0,97,0.00,,---,0.00,VWS V14.01,2013-02-16 15:47:00,
2013-02-16 07:52:00,25.2,24.5,30.07,NW,326,0.0,0.0,97,0.00,,---,0.00,VWS V14.01,2013-02-16 15:52:00,
2013-02-16 07:57:00,25.3,24.6,30.07,NW,326,0.0,0.0,97,0.00,,---,0.00,VWS V14.01,2013-02-16 15:57:00,
2013-02-16 08:00:00,25.6,24.9,30.06,NW,326,0.0,0.0,97,0.00,,---,0.00,VWS V14.01,2013-02-16 16:00:00,
2013-02-16 08:02:00,25.7,25.0,30.06,NW,326,0.0,0.0,97,0.00,,---,0.00,VWS V14.01,2013-02-16 16:02:00,
2013-02-16 08:07:00,26.0,25.3,30.06,NW,326,0.0,0.0,97,0.00,,---,0.00,VWS V14.01,2013-02-16 16:07:00,
2013-02-16 08:12:00,26.3,25.6,30.06,NW,326,0.0,0.0,97,0.00,,---,0.00,VWS V14.01,2013-02-16 16:12:00,
2013-02-16 08:17:00,26.7,26.0,30.06,NW,326,0.0,0.0,97,0.00,,---,0.00,VWS V14.01,2013-02-16 16:17:00,
2013-02-16 08:22:00,26.6,25.9,30.06,NW,326,0.0,0.0,97,0.00,,---,0.00,VWS V14.01,2013-02-16 16:22:00,
2013-02-16 08:27:00,28.1,27.6,30.06,NW,326,0.0,0.0,98,0.00,,---,0.00,VWS V14.01,2013-02-16 16:27:00,
2013-02-16 08:32:00,28.8,28.3,30.06,NW,326,0.0,0.0,98,0.00,,---,0.00,VWS V14.01,2013-02-16 16:32:00,
2013-02-16 08:37:00,29.8,29.3,30.05,NW,326,0.0,1.0,98,0.00,,---,0.00,VWS V14.01,2013-02-16 16:37:00,
2013-02-16 08:42:00,31.1,30.6,30.05,NW,326,0.0,1.0,98,0.00,,---,0.00,VWS V14.01,2013-02-16 16:42:00,
2013-02-16 08:47:00,31.5,31.0,30.06,NW,326,0.0,1.0,98,0.00,,---,0.00,VWS V14.01,2013-02-16 16:47:00,
2013-02-16 08:52:00,32.2,31.7,30.06,NW,312,0.0,2.0,98,0.00,,---,0.00,VWS V14.01,2013-02-16 16:52:00,
2013-02-16 08:57:00,33.4,32.6,30.05,NW,312,0.0,2.0,97,0.00,,---,0.00,VWS V14.01,2013-02-16 16:57:00,
2013-02-16 09:00:00,33.3,32.3,30.05,NW,312,0.0,2.0,96,0.00,,---,0.00,VWS V14.01,2013-02-16 17:00:00,
2013-02-16 09:02:00,33.5,32.5,30.05,NW,312,0.0,0.0,96,0.00,,---,0.00,VWS V14.01,2013-02-16 17:02:00,
2013-02-16 09:07:00,33.5,32.2,30.05,South,188,4.0,4.0,95,0.00,,---,0.00,VWS V14.01,2013-02-16 17:07:00,
2013-02-16 09:12:00,34.4,33.1,30.05,South,175,0.0,4.0,95,0.00,,---,0.00,VWS V14.01,2013-02-16 17:12:00,
2013-02-16 09:17:00,35.7,33.9,30.05,SW,219,3.0,4.0,93,0.00,,---,0.00,VWS V14.01,2013-02-16 17:17:00,
2013-02-16 09:22:00,37.3,34.6,30.04,SW,234,3.0,6.0,90,0.00,,---,0.00,VWS V14.01,2013-02-16 17:22:00,
2013-02-16 09:27:00,38.0,34.8,30.04,SSW,212,2.0,6.0,88,0.00,,---,0.00,VWS V14.01,2013-02-16 17:27:00,
2013-02-16 09:32:00,38.3,34.8,30.04,South,188,5.0,6.0,87,0.00,,---,0.00,VWS V14.01,2013-02-16 17:32:00,
2013-02-16 09:37:00,38.8,35.0,30.04,SSW,203,4.0,9.0,86,0.00,,---,0.00,VWS V14.01,2013-02-16 17:37:00,
2013-02-16 09:42:00,39.1,35.0,30.04,SSW,208,2.0,9.0,85,0.00,,---,0.00,VWS V14.01,2013-02-16 17:42:00,
2013-02-16 09:47:00,39.4,35.3,30.04,ESE,112,4.0,9.0,85,0.00,,---,0.00,VWS V14.01,2013-02-16 17:47:00,
2013-02-16 09:52:00,39.9,35.5,30.04,SSW,196,4.0,9.0,84,0.00,,---,0.00,VWS V14.01,2013-02-16 17:52:00,
2013-02-16 09:57:00,40.4,35.7,30.03,South,170,4.0,9.0,83,0.00,,---,0.00,VWS V14.01,2013-02-16 17:57:00,
2013-02-16 10:00:00,40.8,36.3,30.03,SSW,206,2.0,9.0,84,0.00,,---,0.00,VWS V14.01,2013-02-16 18:00:00,
2013-02-16 10:02:00,40.8,36.0,30.03,South,178,1.0,5.0,83,0.00,,---,0.00,VWS V14.01,2013-02-16 18:02:00,
2013-02-16 10:07:00,41.1,36.3,30.03,South,180,3.0,7.0,83,0.00,,---,0.00,VWS V14.01,2013-02-16 18:07:00,
2013-02-16 10:12:00,41.8,36.7,30.02,SE,133,5.0,7.0,82,0.00,,---,0.00,VWS V14.01,2013-02-16 18:12:00,
2013-02-16 10:17:00,41.8,36.7,30.02,South,180,3.0,7.0,82,0.00,,---,0.00,VWS V14.01,2013-02-16 18:17:00,
2013-02-16 10:22:00,41.9,36.8,30.02,South,180,0.0,7.0,82,0.00,,---,0.00,VWS V14.01,2013-02-16 18:22:00,
2013-02-16 10:27:00,41.5,36.4,30.02,SSW,196,1.0,7.0,82,0.00,,---,0.00,VWS V14.01,2013-02-16 18:27:00,
2013-02-16 10:32:00,41.6,36.5,30.02,SSW,208,3.0,7.0,82,0.00,,---,0.00,VWS V14.01,2013-02-16 18:32:00,
2013-02-16 10:37:00,41.5,36.4,30.02,WSW,252,2.0,7.0,82,0.00,,---,0.00,VWS V14.01,2013-02-16 18:37:00,
2013-02-16 10:42:00,41.7,36.6,30.02,WSW,238,4.0,7.0,82,0.00,,---,0.00,VWS V14.01,2013-02-16 18:42:00,
2013-02-16 10:47:00,41.8,36.7,30.01,South,180,3.0,7.0,82,0.00,,---,0.00,VWS V14.01,2013-02-16 18:47:00,
2013-02-16 10:52:00,41.8,36.7,30.01,South,181,3.0,8.0,82,0.00,,---,0.00,VWS V14.01,2013-02-16 18:52:00,
2013-02-16 10:57:00,42.1,36.7,30.01,South,170,5.0,8.0,81,0.00,,---,0.00,VWS V14.01,2013-02-16 18:57:00,
2013-02-16 11:00:00,42.2,37.1,30.01,SSW,205,4.0,8.0,82,0.00,,---,0.00,VWS V14.01,2013-02-16 19:00:00,
2013-02-16 11:02:00,42.2,37.1,30.01,SSW,205,5.0,7.0,82,0.00,,---,0.00,VWS V14.01,2013-02-16 19:02:00,
2013-02-16 11:07:00,42.0,36.9,30.01,SW,236,1.0,7.0,82,0.00,,---,0.00,VWS V14.01,2013-02-16 19:07:00,
2013-02-16 11:12:00,42.0,36.9,30.01,West,279,3.0,7.0,82,0.00,,---,0.00,VWS V14.01,2013-02-16 19:12:00,
2013-02-16 11:17:00,42.2,37.1,30.00,SSW,209,3.0,7.0,82,0.00,,---,0.00,VWS V14.01,2013-02-16 19:17:00,
2013-02-16 11:22:00,42.1,37.0,30.00,South,187,2.0,7.0,82,0.00,,---,0.00,VWS V14.01,2013-02-16 19:22:00,
2013-02-16 11:27:00,42.0,36.9,30.00,WSW,238,3.0,8.0,82,0.00,,---,0.00,VWS V14.01,2013-02-16 19:27:00,
2013-02-16 11:32:00,41.9,36.8,30.00,South,182,0.0,8.0,82,0.00,,---,0.00,VWS V14.01,2013-02-16 19:32:00,
2013-02-16 11:37:00,41.9,36.8,29.99,SSW,206,2.0,8.0,82,0.00,,---,0.00,VWS V14.01,2013-02-16 19:37:00,
2013-02-16 11:42:00,41.5,36.7,29.99,SSW,197,3.0,8.0,83,0.00,,---,0.00,VWS V14.01,2013-02-16 19:42:00,
2013-02-16 11:47:00,41.5,36.7,29.99,SSW,192,3.0,8.0,83,0.00,,---,0.00,VWS V14.01,2013-02-16 19:47:00,
2013-02-16 11:52:00,41.5,37.0,29.98,South,180,1.0,8.0,84,0.00,,---,0.00,VWS V14.01,2013-02-16 19:52:00,
2013-02-16 11:57:00,41.5,37.0,29.98,SSW,195,0.0,8.0,84,0.00,,---,0.00,VWS V14.01,2013-02-16 19:57:00,
2013-02-16 12:00:00,41.5,37.0,29.98,SSW,213,2.0,8.0,84,0.00,,---,0.00,VWS V14.01,2013-02-16 20:00:00,
2013-02-16 12:02:00,41.5,37.0,29.97,SSE,156,6.0,7.0,84,0.00,,---,0.00,VWS V14.01,2013-02-16 20:02:00,
2013-02-16 13:00:00,41.6,37.4,29.95,SW,225,3.0,10.0,85,0.00,,---,0.00,VWS V14.01,2013-02-16 21:00:00,
2013-02-16 14:00:00,41.1,38.1,29.92,SSW,202,3.0,9.0,89,0.00,,---,0.00,VWS V14.01,2013-02-16 22:00:00,
2013-02-16 15:00:00,40.6,37.6,29.92,SSW,202,3.0,9.0,89,0.00,,---,0.00,VWS V14.01,2013-02-16 23:00:00,
2013-02-16 16:00:00,41.4,38.1,29.90,SSW,202,3.0,13.0,88,0.00,,---,0.00,VWS V14.01,2013-02-17 00:00:00,
2013-02-16 17:00:00,40.9,37.6,29.89,SW,225,2.0,10.0,88,0.00,,---,0.00,VWS V14.01,2013-02-17 01:00:00,
2013-02-16 18:00:00,36.3,35.0,29.89,SW,225,0.0,3.0,95,0.00,,---,0.00,VWS V14.01,2013-02-17 02:00:00,
2013-02-16 19:00:00,35.3,33.8,29.87,SW,225,0.0,4.0,94,0.00,,---,0.00,VWS V14.01,2013-02-17 03:00:00,
2013-02-16 20:00:00,34.4,32.9,29.86,SW,225,1.0,4.0,94,0.00,,---,0.00,VWS V14.01,2013-02-17 04:00:00,
2013-02-16 21:00:00,33.9,29.9,29.88,South,180,1.0,6.0,85,0.00,,---,0.00,VWS V14.01,2013-02-17 05:00:00,
2013-02-16 22:00:00,34.5,30.8,29.89,SW,225,1.0,5.0,86,0.00,,---,0.00,VWS V14.01,2013-02-17 06:00:00,
2013-02-16 23:00:00,32.8,29.9,29.89,SSW,202,1.0,5.0,89,0.00,,---,0.00,VWS V14.01,2013-02-17 07:00:00,